Location: Unspecified
(51.0950°N, 12.9690°E)
Time: 21:28:53
(UTC+00:00)

JY1SAT - Pass Details

Date: 25 April 2024
Orbit: 538 x 552 km, 97.5° (Epoch: 25 May)

Event Time Altitude Azimuth Distance (km) Brightness Sun altitude
Exits shadow 20:22:05 18° 190° (S) 1,382 ? -16.2°
Maximum altitude 20:24:48 49° 260° (W) 709 ? -16.5°
Drops below altitude 10° 20:28:38 10° 337° (NNW) 1,823 ? -16.8°
Sets 20:30:49 0° 343° (NNW) 2,718 ? -17.1°
